カタリナ-ニート彗星

395P/Catalina-NEAT (2021)

English version
Home page
Updated on September 18, 2021

---------------------------------------------------------------------

・ プロフィール

符号 395P/2020 H1
検出日 2020年4月26日
検出光度 21.0等
検出者 Erwin Schwab (Egelsbach, Germany), D. Abreu (European Space Agency's Optical Ground Station, Tenerife)

・ 写真集

・ 軌道要素

Epoch 2021 Dec. 12.0 TT = JDT 2459560.5
T 2021 Dec. 30.45423 TT                                 Rudenko
q   4.0648843            (2000.0)            P               Q
n   0.05865862     Peri.   89.84941     +0.68739332     +0.72521275
a   6.5601661      Node   223.66379     -0.68702035     +0.63164944
e   0.3803687      Incl.    3.27621     -0.23557049     +0.27401726
P  16.8
From 240 observations 2005 May 12-2021 Apr. 24, mean residual 0".8.

・ 光度変化

        m1 = -0.5 + 5 logΔ + 25.0 log r

---------------------------------------------------------------------

軌道要素はM.P.E.C. 2021-J28に掲載されたものです。
光度グラフはComet for Windowsで作成したものです。

---------------------------------------------------------------------

Copyright(C) Seiichi Yoshida (comet@aerith.net). All rights reserved.